Hourly Data Report for May 09, 2019

MIRAMICHI RCS
NEW BRUNSWICK
Current Station Operator: ECCC - MSC

47°00'34.000" N
65°27'54.000" W
33.00 m
8100989
71744
ACQ

Download Data

Hourly Data (May 2019)
Hourly Data Report for May 9, 2019
TIME
LST
Temp Definition
°C
Dew Point Definition
°C
Rel Hum Definition
%
Precip. Amount Definition
mm

Wind Dir Definition
10's deg

Wind Spd Definition
km/h
Visibility Definition
km
Stn Press Definition
kPa
Hmdx Definition


Wind Chill Definition


Weather Definition


00:00 2.2 -3.9 64 0.0 24 7   101.66     LegendNANA
01:00 3.0 -3.5 62 0.0 28 7   101.68     LegendNANA
02:00 1.6 -3.4 69 0.0 25 9   101.69     LegendNANA
03:00 0.5 -3.5 75 0.0 26 7   101.71     LegendNANA
04:00 1.4 -3.5 70 0.0 26 9   101.76     LegendNANA
05:00 1.4 -2.9 73 0.0 26 7   101.88     LegendNANA
06:00 3.6 -3.1 61 0.0 32 9   101.95     LegendNANA
07:00 4.9 -2.9 57 0.0 33 10   102.03     LegendNANA
08:00 6.5 -2.0 55 0.0 34 13   102.08     LegendNANA
09:00 8.5 -1.0 51 0.0 35 9   102.08     LegendNANA
10:00 10.3 0.0 49 0.0 2 10   102.13     LegendNANA
11:00 11.3 0.6 48 0.0 3 12   102.13     LegendNANA
12:00 11.3 1.4 51 0.0 6 14   102.17     LegendNANA
13:00 11.4 2.8 55 0.0 6 13   102.19     LegendNANA
14:00 11.2 3.1 57 0.0 9 19   102.24     LegendNANA
15:00 12.4 2.8 52 0.0 8 16   102.23     LegendNANA
16:00 11.0 3.2 59 0.0 7 21   102.24     LegendNANA
17:00 10.1 2.9 61 0.0 6 20   102.28     LegendNANA
18:00 9.4 2.9 64 0.0 7 19   102.32     LegendNANA
19:00 7.9 2.9 71 0.0 6 13   102.38     LegendNANA
20:00 6.3 2.6 77 0.0 8 12   102.42     LegendNANA
21:00 4.7 1.9 82 0.0 11 8   102.41     LegendNANA
22:00 4.1 1.7 84 0.0 10 3   102.40     LegendNANA
23:00 3.8 1.9 87 0.0 8 8   102.36     LegendNANA

Notes on Data Quality.

Legend

  • E = Estimated
  • M = Missing
  • NA = Not Available*
  • [empty] = Indicates an unobserved value
Date modified: